Wind_Speed
79 86 85 86 84 87 86 83 85 82 79 74 71 68 62 52 50 50 46 43 38 32 30 23 19 21 18 13 10 11 8 7
80 86 89 86 88 87 86 85 87 85 81 82 79 76 65 60 54 52 49 46 45 40 42 33 26 26 23 17 13 18 12 11
81 84 90 91 89 88 89 86 86 85 80 80 79 77 72 68 61 56 52 53 49 48 47 42 31 30 27 22 18 18 18 15
82 83 87 90 91 91 90 87 86 85 84 77 76 76 74 71 70 62 55 58 58 55 52 47 38 35 31 28 28 26 25 24
82 80 86 90 94 93 92 89 87 86 88 92 92 87 83 76 73 65 66 63 63 56 55 52 46 43 38 34 28 32 31 29
85 90 89 90 92 94 95 93 88 88 93 91 88 85 80 74 79 73 74 71 64 60 60 55 53 50 42 39 36 32 29 32
86 83 83 83 87 93 95 96 93 91 91 95 93 90 86 83 78 78 76 80 72 65 66 64 57 56 53 50 42 37 40 36
85 83 85 86 89 93 95 97 96 93 91 96 99 93 90 89 87 83 79 81 82 74 72 67 64 63 58 54 49 48 48 46
89 87 87 86 89 91 94 95 97 96 96 92 97 101 99 94 91 90 85 84 77 71 71 72 70 68 66 60 56 56 54 53
89 88 85 91 88 89 93 96 98 100 97 94 94 96 96 103 97 96 92 89 85 85 78 72 71 73 71 69 66 64 62 59
84 88 90 87 88 90 92 97 100 100 101 99 96 95 96 96 104 106 102 100 95 88 83 79 81 76 73 73 71 71 68 65
80 83 86 91 88 91 91 94 101 102 99 100 100 97 95 96 97 100 106 109 107 107 100 93 86 83 85 82 77 74 69 71
77 82 85 84 87 90 93 95 97 102 101 99 99 98 97 97 96 98 99 100 102 104 104 103 100 95 85 83 83 83 84 78
76 77 81 84 84 86 91 93 92 97 103 102 99 99 103 101 99 98 98 99 99 95 93 95 103 105 101 93 89 90 85 82
80 83 80 81 83 85 86 88 89 92 96 100 102 101 100 102 101 101 102 101 100 98 96 94 95 99 107 106 104 92 90 90
63 75 87 86 80 82 84 84 85 88 90 95 99 101 101 102 104 106 104 103 102 99 97 96 96 96 99 103 113 110 107 105
50 61 71 79 83 81 81 83 83 85 88 91 94 98 101 103 104 105 105 104 103 104 103 101 99 99 99 100 101 104 110 114
40 48 57 66 72 80 82 81 79 81 85 87 89 90 88 99 104 105 104 104 105 107 107 106 105 104 102 101 102 103 104 103
37 38 43 52 61 71 79 80 78 77 80 82 85 86 90 94 98 102 104 103 106 106 107 107 110 111 108 107 107 107 106 106
Wind_Direction
211 211 211 210 209 208 209 208 210 212 212 214 217 220 227 223 216 218 223 231 229 222 222 232 240 237 248 260 270 263 280 255
212 212 212 210 210 210 210 210 210 211 217 218 220 224 222 215 218 222 227 236 233 233 230 230 233 234 241 252 262 256 242 248
213 213 213 211 211 210 211 211 214 214 212 220 221 222 215 220 225 227 217 227 224 233 235 233 235 226 235 247 257 250 243 238
218 216 216 214 213 211 210 213 214 215 210 213 212 212 214 222 227 227 219 219 225 231 237 237 236 227 232 240 254 250 260 239
220 217 218 216 214 212 211 212 214 214 214 212 217 219 224 224 226 221 214 221 224 228 229 229 224 231 237 248 256 247 257 244
220 218 217 217 216 215 213 212 213 214 215 218 217 221 216 218 220 218 217 222 225 225 226 227 233 234 235 235 234 244 246 245
222 220 220 220 220 218 217 213 213 214 215 213 213 215 216 214 220 222 220 222 222 221 228 234 235 237 235 232 232 236 239 247
223 222 223 220 219 220 218 218 214 216 214 214 213 214 216 216 217 220 223 225 225 225 229 233 238 240 238 230 223 227 242 253
225 224 223 223 221 220 220 219 218 217 217 217 218 218 217 218 217 218 219 225 222 225 231 236 238 240 240 239 235 231 234 244
224 225 223 224 222 221 221 221 219 219 217 220 221 221 220 218 218 219 220 219 221 226 227 229 232 237 238 239 240 240 236 242
222 223 225 223 221 221 222 222 221 220 219 219 222 223 222 222 222 223 224 223 224 225 223 227 231 234 238 240 242 244 242 238
222 222 223 222 221 221 221 222 222 221 221 220 222 224 225 225 223 226 228 229 232 232 232 230 228 232 236 239 243 243 243 238
222 223 223 221 221 222 222 222 222 222 221 222 222 225 226 228 227 227 227 229 232 235 237 234 233 234 229 233 238 241 242 241
224 224 225 223 219 222 224 223 223 223 224 223 222 224 226 227 229 229 230 231 232 233 235 235 235 234 236 236 232 234 235 237
222 223 224 224 223 220 223 224 223 224 225 226 226 225 227 227 229 231 231 232 234 235 235 235 237 237 236 239 241 233 235 240
223 224 226 227 224 223 222 223 223 223 224 226 227 229 229 229 229 231 232 234 235 235 237 238 237 238 239 239 239 240 243 246
225 226 226 226 226 224 224 224 223 224 224 224 227 229 231 232 233 232 234 236 237 238 238 238 239 239 241 241 242 243 245 248
228 227 226 226 225 224 224 225 225 224 225 225 225 227 233 235 235 235 235 235 237 239 240 240 241 241 241 242 245 245 246 247
228 229 228 228 227 224 224 224 224 224 225 226 225 226 228 237 236 238 237 237 238 239 240 241 242 242 244 244 245 245 246 248
Height
10824 10833 10847 10861 10881 10888 10897 10911 10923 10930 10938 10946 10952 10959 10967 10975 10981 10987 10993 10996 11001 11008 11011 11014 11017 11020 11024 11026 11028 11030 11031 11032
10803 10818 10829 10850 10860 10877 10889 10899 10907 10918 10925 10935 10941 10948 10957 10965 10971 10978 10985 10990 10995 11000 11005 11008 11013 11017 11021 11023 11025 11027 11029 11030
10794 10803 10814 10830 10843 10861 10871 10883 10894 10908 10912 10921 10928 10936 10947 10953 10962 10969 10976 10982 10986 10991 10996 11003 11008 11012 11016 11019 11021 11024 11026 11028
10776 10793 10806 10819 10831 10844 10857 10870 10881 10889 10900 10912 10917 10925 10935 10942 10952 10962 10965 10970 10975 10980 10987 10994 11001 11005 11009 11013 11016 11018 11021 11024
10765 10783 10790 10802 10811 10826 10840 10852 10866 10879 10886 10891 10901 10912 10923 10932 10938 10950 10956 10958 10962 10972 10979 10986 10992 10996 11000 11006 11008 11011 11015 11018
10746 10747 10763 10782 10800 10811 10824 10838 10847 10859 10864 10876 10889 10898 10910 10918 10926 10936 10945 10948 10953 10961 10968 10974 10982 10987 10992 10998 11000 11003 11007 11010
10726 10746 10761 10775 10790 10799 10810 10820 10833 10839 10847 10859 10870 10882 10894 10906 10914 10922 10932 10939 10943 10949 10955 10961 10969 10975 10982 10987 10992 10996 10997 11002
10713 10730 10742 10754 10765 10779 10792 10805 10818 10828 10837 10847 10856 10868 10878 10888 10898 10905 10916 10925 10932 10938 10943 10948 10956 10963 10970 10976 10980 10984 10988 10992
10695 10709 10724 10740 10749 10762 10777 10791 10803 10811 10816 10835 10839 10850 10861 10871 10881 10890 10899 10909 10916 10923 10931 10937 10944 10950 10958 10964 10967 10971 10976 10981
10675 10693 10707 10709 10734 10747 10759 10771 10781 10791 10806 10814 10823 10832 10844 10855 10864 10874 10882 10891 10898 10909 10918 10924 10931 10935 10942 10948 10954 10958 10964 10968
10660 10669 10683 10703 10713 10727 10738 10749 10760 10772 10784 10797 10806 10814 10827 10837 10847 10855 10864 10872 10882 10892 10899 10906 10916 10922 10926 10931 10937 10942 10950 10954
10641 10654 10665 10671 10693 10705 10717 10727 10736 10753 10767 10778 10788 10799 10810 10819 10829 10838 10848 10855 10860 10868 10880 10891 10897 10904 10911 10917 10921 10926 10932 10936
10624 10633 10643 10662 10674 10686 10692 10702 10717 10734 10748 10759 10772 10786 10793 10800 10811 10819 10828 10834 10841 10851 10862 10872 10880 10885 10892 10899 10906 10908 10913 10918
10609 10619 10631 10640 10655 10666 10675 10688 10704 10717 10728 10742 10755 10760 10765 10780 10791 10799 10808 10815 10823 10832 10840 10849 10856 10865 10873 10878 10883 10888 10892 10896
10593 10601 10608 10621 10636 10647 10657 10673 10687 10698 10713 10724 10734 10741 10751 10761 10770 10776 10783 10792 10803 10814 10822 10830 10838 10846 10854 10857 10860 10867 10872 10876
10577 10584 10592 10603 10618 10631 10642 10654 10667 10678 10692 10702 10715 10725 10732 10738 10748 10755 10763 10773 10785 10795 10802 10811 10819 10824 10830 10835 10840 10846 10851 10854
10563 10569 10577 10586 10600 10614 10624 10635 10648 10660 10670 10681 10693 10703 10712 10720 10727 10736 10747 10755 10763 10771 10780 10789 10794 10802 10808 10814 10820 10826 10830 10833
10552 10557 10564 10572 10583 10595 10606 10618 10631 10645 10653 10664 10676 10687 10694 10695 10703 10711 10722 10732 10738 10748 10754 10763 10770 10778 10786 10792 10796 10802 10808 10811
10543 10548 10554 10561 10569 10579 10590 10602 10614 10628 10636 10646 10657 10666 10672 10676 10680 10690 10700 10709 10713 10720 10729 10739 10745 10751 10758 10766 10772 10777 10781 10786